Flag for Russia Weather past 2 weeks in Syktyvkar, Russia

Now
63 °F

Sprinkles. Fog.


Feels Like: 63 °F
Forecast: 70 / 88 °F
Wind: 6 mph from Southwest

Location: Syktyvkar Airport

Current Time: May 30, 2015 at 6:02:10 AM

Latest Report: May 30, 2015 at 5:00 AM


Visibility: 3 mi

Pressure: 29.92 "Hg

Humidity: 94%

Dew point: 61 °F

Location of SyktyvkarLocation

Historic Weather in Syktyvkar — Graph

°F

Syktyvkar temperature yesterday

Maximum temperature yesterday: 82 °F (at 5:30 PM)
Minimum temperature yesterday: 61 °F (at 3:00 AM)
Average temperature yesterday: 71 °F

Past Weeks' High & Low Weather Summary

 TemperatureHumidityPressure
High84 °F (May 28, 1:30 PM)94% (May 15, 11:00 PM)30.04 "Hg (May 15, 11:00 PM)
Low43 °F (May 22, 2:00 AM)18% (May 21, 4:00 PM)29.39 "Hg (May 17, 11:00 PM)
Average61 °F58%29.79 "Hg
* Reported May 15 5:00 AM — May 30 5:00 AM, Syktyvkar, Weather by CustomWeather, © 2015

Note: Actual official high and low records may vary slightly from our data, if they occured in-between our weather recording intervals... More about our weather records

Advertising

Syktyvkar weather history for previous 24 hours

 ConditionsComfort  
Time TempWeatherWind HumidityBarometerVisibility
5:00 AM
Sat, May 30
63 °FSprinkles. Fog.6 mph94%29.92 "Hg3 mi
4:30 AM63 °FScattered clouds.6 mph94%29.89 "Hg4 mi
4:00 AM63 °FFog.3 mph94%29.89 "Hg3 mi
3:30 AM63 °FFog.3 mph94%29.89 "Hg3 mi
3:00 AM61 °FFog.1 mph94%29.86 "Hg3 mi
2:30 AM63 °FFog.1 mph94%29.86 "Hg3 mi
2:00 AM63 °FFog.3 mph94%29.86 "Hg2 mi
1:30 AM63 °FPassing clouds.3 mph94%29.86 "Hg4 mi
1:00 AM63 °FSprinkles. Passing clouds.1 mph94%29.83 "Hg4 mi
12:00 AM63 °FThunderstorms. Partly cloudy.3 mph94%29.86 "Hg4 mi
11:30 PM
Fri, May 29
64 °FThunderstorms. Partly cloudy.3 mph83%29.89 "Hg4 mi
11:00 PM64 °FThunderstorms. Passing clouds.6 mph83%29.86 "HgN/A
10:30 PM64 °FThunderstorms. Partly cloudy.3 mph83%29.86 "Hg6 mi
10:00 PM63 °FThunderstorms. Passing clouds.1 mph88%29.83 "HgN/A
9:30 PM63 °FThundershowers. Partly sunny.1 mph88%29.83 "HgN/A
9:00 PM64 °FThunderstorms. Partly sunny.1 mph88%29.83 "HgN/A
8:30 PM64 °FThunderstorms. Broken clouds.1 mph83%29.83 "Hg4 mi
8:00 PM73 °FThunderstorms. Scattered clouds.1 mph61%29.83 "HgN/A
7:30 PM75 °FScattered clouds.1 mph57%29.83 "HgN/A
7:00 PM79 °FPassing clouds.3 mph48%29.83 "HgN/A
6:30 PM81 °FPassing clouds.1 mph42%29.83 "HgN/A
6:00 PM81 °FPassing clouds.No wind37%29.83 "HgN/A
5:30 PM82 °FPassing clouds.No wind37%29.83 "HgN/A
5:00 PM81 °FPassing clouds.1 mph42%29.83 "HgN/A
4:30 PM81 °FPassing clouds.1 mph45%29.83 "HgN/A
4:00 PM79 °FPassing clouds.3 mph51%29.83 "HgN/A
3:30 PM77 °FPassing clouds.3 mph57%29.83 "HgN/A
3:00 PM77 °FPassing clouds.3 mph57%29.83 "HgN/A
2:30 PM77 °FPassing clouds.6 mph54%29.83 "HgN/A
2:00 PM77 °FScattered clouds.6 mph54%29.83 "HgN/A
1:30 PM77 °FScattered clouds.6 mph54%29.83 "HgN/A
1:00 PM79 °FPassing clouds.8 mph48%29.83 "HgN/A
12:30 PM77 °FPassing clouds.8 mph51%29.83 "HgN/A
12:00 PM79 °FPassing clouds.6 mph48%29.83 "HgN/A
11:30 AM79 °FPassing clouds.8 mph51%29.83 "HgN/A
11:00 AM77 °FPassing clouds.8 mph51%29.83 "HgN/A
10:30 AM75 °FSunny.8 mph57%29.83 "Hg10 mi
10:00 AM75 °FSunny.6 mph57%29.83 "Hg10 mi
9:30 AM73 °FPassing clouds.6 mph61%29.83 "HgN/A
9:00 AM72 °FSunny.3 mph65%29.83 "Hg10 mi
8:30 AM70 °FSunny.6 mph64%29.83 "Hg10 mi
8:00 AM68 °FSunny.6 mph69%29.83 "Hg10 mi
7:30 AM68 °FSunny.3 mph69%29.80 "Hg10 mi
7:00 AM66 °FSunny.6 mph73%29.80 "Hg10 mi
6:00 AM66 °FPassing clouds.3 mph73%29.80 "HgN/A
Weather by CustomWeather, © 2015

See weather overviewHow to use our weather pages